Satellite: PO-34
Catalog number: 25520
Epoch time:      06048.85080275
Element set:     395
Inclination:      028.4580 deg
RA of node:       109.4409 deg
Eccentricity:    0.0005419
Arg of perigee:   022.4783 deg
Mean anomaly:     337.6053 deg
Mean motion:   15.16612889 rev/day
Decay rate:       4.96e-06 rev/day^2
Epoch rev:           40391
Checksum:              310

Satellite: ISS
Catalog number: 25544
Epoch time:      06049.02712141
Element set:     371
Inclination:      051.6424 deg
RA of node:       080.3397 deg
Eccentricity:    0.0007350
Arg of perigee:   293.7440 deg
Mean anomaly:     149.0993 deg
Mean motion:   15.74566456 rev/day
Decay rate:     1.2045e-04 rev/day^2
Epoch rev:           41438
Checksum:              287

Satellite: OO-38
Catalog number: 26063
Epoch time:      06048.29144326
Element set:     547
Inclination:      100.1900 deg
RA of node:       317.7609 deg
Eccentricity:    0.0037266
Arg of perigee:   084.7015 deg
Mean anomaly:     275.8400 deg
Mean motion:   14.35753446 rev/day
Decay rate:        3.0e-08 rev/day^2
Epoch rev:           31746
Checksum:              290

Satellite: NO-45
Catalog number: 26932
Epoch time:      06047.74640924
Element set:    0246
Inclination:      067.0596 deg
RA of node:       317.5912 deg
Eccentricity:    0.0007063
Arg of perigee:   286.7984 deg
Mean anomaly:     073.2347 deg
Mean motion:   14.29516965 rev/day
Decay rate:       2.14e-06 rev/day^2
Epoch rev:           22875
Checksum:              332

Satellite: UWE-1
Catalog number: 28892
Epoch time:      06048.27633955
Element set:     375
Inclination:      098.1790 deg
RA of node:       308.3573 deg
Eccentricity:    0.0017419
Arg of perigee:   181.8826 deg
Mean anomaly:     178.2311 deg
Mean motion:   14.59305152 rev/day
Decay rate:       1.72e-06 rev/day^2
Epoch rev:            1648
Checksum:              319

Satellite: XI-V
Catalog number: 28895
Epoch time:      06048.34056846
Element set:     358
Inclination:      098.1813 deg
RA of node:       308.4594 deg
Eccentricity:    0.0017835
Arg of perigee:   181.8513 deg
Mean anomaly:     178.2618 deg
Mean motion:   14.59360787 rev/day
Decay rate:       1.21e-06 rev/day^2
Epoch rev:            1637
Checksum:              330

Satellite: NCUBE2
Catalog number: 28897
Epoch time:      06046.68509518
Element set:    0033
Inclination:      098.1758 deg
RA of node:       306.8260 deg
Eccentricity:    0.0016832
Arg of perigee:   190.0267 deg
Mean anomaly:     170.0603 deg
Mean motion:   14.59513351 rev/day
Decay rate:       1.22e-06 rev/day^2
Epoch rev:           00840
Checksum:              288

Satellite: AO-54
Catalog number: 28933
Epoch time:      06048.37291263
Element set:      18
Inclination:      051.6436 deg
RA of node:       083.6446 deg
Eccentricity:    0.0007795
Arg of perigee:   298.5706 deg
Mean anomaly:     061.4901 deg
Mean motion:   15.75480477 rev/day
Decay rate:     2.6151e-04 rev/day^2
Epoch rev:             211
Checksum:              311

/EX



----
Via the keps mailing list at AMSAT.ORG courtesy of AMSAT-NA.
To unsubscribe, send "unsubscribe keps" to Majordomo@amsat.org

--- ViaMAIL!/WC v1.60d
 * Origin: Chowdanet (401-724-4410) telnet://chowdanet.com  (1:323/120)